User: anonymous   Login
Location: Aix-en-Ergny
(50.5839°N, 1.9996°E)
Time: 20:50:21
(UTC+00:00)
Language:

Cosmos 2333 Rocket - Orbit

View from above orbital plane
View from above orbital plane
View from above satellite
View from above satellite

Ground track
Ground track

The orbit data is extracted from the following two-line orbital elements,

1 24298U 96051B   19347.83912433 +.00000128 +00000-0 +95779-4 0  9995
2 24298 070.8371 303.9493 0019212 266.4621 093.4302 14.12459525200007
Epoch (UTC): 13 December 2019 20:08:20
Eccentricity: 0.0019212
inclination: 70.8371°
perigee height: 837 km
apogee height: 865 km
right ascension of ascending node: 303.9493°
argument of perigee: 266.4621°
revolutions per day: 14.12459525
mean anomaly at epoch: 93.4302°
orbit number at epoch: 20000

The dashed part of the orbit path shows where the satellite is in the earth's shadow,  

DLR